TIME,DELAY(SENSOR),PRES,T(CTD),SAL,OXYGEN,RAWTEMP,T(OPTODE),TCPHASE,FLUOR,BETA(BETA700),BETA(BETA412),BETA(BETA440),CDOM,C(CSC),ED(ED412.40),ED(ED444.00),ED(ED489.70),ED(ED554.30),LU(LU411.80),LU(LU443.40),LU(LU489.60),LU(LU554.10),COMP,TILTX,TILTX(TILTY),CHECK
1383168562,5807,491.6199951171875000,7.2451000213623050,34.1230010986328100,94.2681579589843800,579.9614868164062000,7.2297039031982420,46.9931716918945300,51,103,86,79,76,15219,2147743881,2147423954,2148008667,2147871213,2147624073,2147072219,2148244653,2147201554,2824,3,13,7773
1383168665,5808,480.7000122070312500,7.3766999244689940,34.1184997558593750,98.7877502441406200,575.8375244140625000,7.3620820045471190,46.4421386718750000,51,104,84,79,74,15214,2147741833,2147425179,2148005696,2147869394,2147623460,2147073133,2148241673,2147199158,1624,4,13,6052
1383168768,5810,469.6799926757812500,7.4935002326965330,34.1152000427246100,104.5434036254882800,572.2100219726562000,7.4783940315246580,45.7832908630371100,51,102,86,78,76,15206,2147739757,2147423643,2148007012,2147873078,2147623168,2147082532,2148240996,2147203273,674,3,13,51100
1383168904,5809,455.7399902343750000,7.6675000190734860,34.1066017150878900,111.9746017456054700,566.5344848632812000,7.6601428985595700,44.9370689392089840,51,102,82,79,76,15214,2147741915,2147424320,2148007872,2147873718,2147623232,2147082898,2148244900,2147203446,3104,3,13,49391
1383169032,5803,445.5599975585937500,7.8594999313354490,34.1021995544433600,122.4934005737304700,560.0695800781250000,7.8668351173400880,43.8145484924316400,50,103,89,79,74,15210,2147738669,2147426157,2148004278,2147872722,2147621412,2147077458,2148241389,2147200018,2788,3,13,56455
1383169204,5809,434.1900024414062500,7.9597001075744630,34.1026992797851560,127.8097991943359400,557.1456298828125000,7.9602031707763670,43.2739410400390600,51,103,85,78,73,15217,2147739748,2147427766,2148003766,2147874057,2147621467,2147079168,2148236992,2147201225,1397,4,13,61339
1383169341,5810,423.5400085449219000,8.1682996749877930,34.0990982055664060,134.5393981933593800,550.9204101562500000,8.1587390899658200,42.5638809204101560,50,104,85,79,73,15215,2147738669,2147423158,2148007451,2147871652,2147621769,2147085321,2148236745,2147198582,1081,4,13,633
1383169513,5808,409.6099853515625000,8.3564996719360350,34.1016998291015600,141.6988983154297000,545.0714721679688000,8.3449840545654300,41.8445091247558600,50,104,88,79,72,15211,2147737380,2147424786,2148007323,2147869613,2147617417,2147085878,2148235008,2147203200,702,3,13,37032
1383169632,5807,397.6700134277344000,8.6871995925903320,34.1057014465332000,146.2639007568359400,534.5864868164062000,8.6781635284423830,41.2792015075683600,50,105,86,80,73,15209,2147736265,2147423817,2148003538,2147873179,2147619145,2147087177,2148232749,2147203968,3201,3,12,15650
1383169735,5806,386.4299926757812500,8.9715003967285160,34.1092987060546900,152.9145965576172000,525.0997924804688000,8.9788761138916020,40.5740699768066400,50,104,90,80,71,15209,2147736338,2147430957,2148006976,2147873353,2147620827,2147087040,2148228470,2147205952,1766,3,13,8281
1383169829,5809,375.9100036621094000,9.1389999389648440,34.1130981445312500,158.1683044433593800,520.2924194335938000,9.1310014724731450,40.0768890380859400,50,104,88,81,73,15209,2147736265,2147424758,2148006016,2147873042,2147616978,2147091510,2148227465,2147202770,244,4,13,15390
1383169932,5808,363.5400085449219000,9.3952999114990230,34.1133995056152340,167.2001953125000000,511.5526123046875000,9.4071168899536130,39.2409095764160160,50,104,83,79,70,15209,2147735908,2147428096,2148005147,2147872795,2147616969,2147091721,2148225755,2147200896,563,4,13,21887
1383170023,5810,352.3699951171875000,9.7615995407104500,34.1199989318847660,174.8397064208984400,500.7710876464844000,9.7469787597656250,38.5040092468261700,50,104,86,80,71,15202,2147733129,2147423917,2148006893,2147872987,2147614509,2147090980,2148225654,2147200301,454,4,12,26114
1383170135,5809,339.6099853515625000,10.1326999664306640,34.1334991455078100,192.7140960693359400,488.3039855957031000,10.1389598846435550,37.0851097106933600,49,105,83,80,70,15213,2147735049,2147425993,2148010395,2147873051,2147614016,2147096896,2148223680,2147203126,3331,3,13,37071
1383170251,5810,329.0000000000000000,10.5128002166748050,34.1497001647949200,204.0935058593750000,476.8864135742187500,10.4970397949218750,36.1862411499023440,49,105,85,79,69,15213,2147731748,2147423195,2148012608,2147870930,2147611163,2147103350,2148228470,2147204790,2513,3,13,29573
1383170378,5809,319.2000122070312500,10.7618999481201170,34.1631011962890600,209.5043029785156200,468.6606140136719000,10.7545003890991210,35.7283706665039060,48,104,85,80,69,15206,2147731446,2147427922,2148013988,2147872009,2147608548,2147099812,2148225581,2147202962,2193,3,13,33569
1383170544,5810,308.3800048828125000,11.1539001464843750,34.1823005676269500,215.6376037597656200,456.5450134277344000,11.1329603195190430,35.1772193908691400,47,104,87,80,67,15213,2147725933,2147425755,2148018715,2147876169,2147604827,2147109074,2148229293,2147202340,1308,3,14,54579
1383170776,5810,294.8500061035156000,11.6284999847412110,34.2029991149902340,218.7346038818359400,440.8872070312500000,11.6208000183105470,34.7517509460449200,50,102,83,80,67,15211,2147724827,2147430857,2148026660,2147871981,2147601901,2147114075,2148226368,2147203940,551,3,14,56569
1383170923,5806,282.9899902343750000,11.8531999588012700,34.2131996154785160,216.1638946533203000,432.2478027343750000,11.8893899917602540,34.7574501037597660,48,105,87,80,68,15218,2147723812,2147428434,2148025846,2147874075,2147603401,2147113371,2148225673,2147206774,197,3,13,53406
1383171083,5812,268.8500061035156000,12.4525003433227540,34.2416000366210940,217.5861968994140600,414.3128967285156000,12.4457502365112300,34.3951492309570300,48,102,86,80,66,15213,2147723803,2147441170,2148063460,2147871926,2147598080,2147122395,2148241673,2147210441,2600,3,14,51204
1383171199,5810,256.8699951171875000,13.2770004272460940,34.3026008605957000,214.9524993896484400,386.3476867675781000,13.3102703094482420,34.1084709167480500,48,102,86,79,68,15212,2147722733,2147453522,2148089060,2147873344,2147595474,2147132032,2148254235,2147209673,1575,3,13,52403
1383171302,5809,246.3200073242187500,14.3020000457763670,34.4114990234375000,212.6752014160156200,352.5704956054687500,14.3503103256225590,33.7233810424804700,49,106,84,80,64,15212,2147721353,2147459922,2148111378,2147872658,2147592265,2147142637,2148259812,2147210331,168,3,13,45548
1383171420,5809,235.1100006103515600,15.0381002426147460,34.4805984497070300,214.9710998535156200,329.4798889160156000,15.0591497421264650,33.2524490356445300,49,108,85,80,65,15204,2147725531,2147472822,2148144173,2147873499,2147589522,2147159350,2148270089,2147211081,91,3,13,64592
1383171547,5806,224.1100006103515600,15.4821996688842770,34.5237007141113300,213.7422943115234400,316.1217956542969000,15.4685802459716800,33.1240196228027340,50,104,86,79,65,15203,2147726253,2147516955,2148247890,2147874002,2147585737,2147188434,2148317970,2147219904,556,3,13,56691
1383171688,5808,213.3399963378906200,15.9673004150390620,34.5806999206543000,215.3946075439453000,294.9801025390625000,16.1157798767089840,32.7266197204589840,49,108,85,79,65,15204,2147729316,2147552713,2148328237,2147872987,2147591753,2147219200,2148356690,2147221878,2825,3,14,6833
1383171827,5810,202.6600036621093800,17.1755008697509770,34.7053985595703100,218.9579010009765600,259.7063903808594000,17.1940498352050780,32.0327796936035160,51,108,89,79,63,15193,2147744182,2147614445,2148458532,2147871478,2147589321,2147265234,2148415890,2147224941,3005,2,14,27206
1383171894,5807,197.3200073242187500,17.3334999084472660,34.7295989990234400,220.1992034912109400,255.3558959960937500,17.3269500732421880,31.9062805175781250,52,106,85,80,64,15195,2147751881,2147658441,2148541558,2147874806,2147592630,2147288804,2148450358,2147229622,2203,3,14,15598
1383171949,5807,192.9400024414062500,17.6383991241455080,34.7629013061523440,219.6408996582031200,245.7342071533203000,17.6208305358886720,31.8013191223144530,54,107,86,78,64,15187,2147764818,2147701723,2148627053,2147872347,2147596269,2147311680,2148494701,2147233234,2039,3,15,14469
1383172030,5809,187.1399993896484400,18.0270004272460940,34.8075981140136700,217.7046966552734400,232.5325927734375000,18.0240001678466800,31.7206001281738280,54,109,87,80,64,15191,2147784877,2147766509,2148752210,2147875108,2147601910,2147357942,2148553325,2147237430,2034,3,15,18558
1383172097,5809,183.0200042724609400,18.4258003234863280,34.8465003967285160,213.8636016845703000,220.4001007080078000,18.3945007324218750,31.7588291168212900,54,108,86,80,64,15194,2147800018,2147821458,2148851355,2147873481,2147610752,2147382326,2148601792,2147241106,2205,2,15,63412
1383172164,5808,179.1699981689453000,18.6112995147705080,34.8647994995117200,211.2776947021484400,212.8110046386718800,18.6262702941894530,31.7948398590087900,55,104,83,79,64,15190,2147822198,2147891968,2148975588,2147876059,2147613933,2147424009,2148657161,2147248100,1341,2,14,6012
1383172231,5810,175.8399963378906200,18.8118991851806640,34.8819007873535160,208.7398986816406200,207.2736968994140600,18.7954006195068360,31.8586997985839840,56,107,88,81,63,15190,2147841545,2147942290,2149077165,2147875401,2147622244,2147461741,2148703049,2147252297,3536,2,15,62575
1383172336,5807,171.5599975585937500,18.9706001281738280,34.8979988098144500,206.5319976806640600,203.2057037353515600,18.9196491241455080,31.9256992340087900,56,108,88,80,63,15187,2147872795,2148025325,2149223323,2147874861,2147630875,2147514048,2148775360,2147257371,3080,2,15,47776
1383172439,5810,168.2400054931640600,19.0711994171142580,34.9090995788574200,205.2897949218750000,198.5684967041015600,19.0613193511962900,31.9316596984863280,57,110,85,78,63,15187,2147903945,2148107163,2149369691,2147877165,2147643565,2147558363,2148838710,2147258825,984,1,15,54068
1383172602,5807,164.4499969482422000,19.5298004150390620,34.9634017944335940,204.6918945312500000,183.7288055419922000,19.5147705078125000,31.7619304656982420,63,108,86,81,63,15177,2147947730,2148200429,2149521801,2147878619,2147656420,2147609929,2148906560,2147268525,2685,2,15,36280
1383172744,5810,159.5700073242187500,19.7891998291015620,34.9973983764648440,205.8592987060547000,174.8419036865234400,19.7864398956298830,31.5752296447753900,67,114,85,79,62,15175,2148033554,2148375350,2149816768,2147881115,2147686637,2147700306,2149029074,2147280237,2595,2,15,54779
1383172823,5810,155.5099945068359400,19.9960994720459000,35.0196990966796900,206.6524963378906200,168.3045959472656200,19.9863605499267580,31.4422092437744140,72,111,88,81,62,15167,2148107419,2148529371,2150067245,2147882724,2147717796,2147787401,2149139940,2147282605,1891,2,15,34843
1383172902,5806,151.5099945068359400,20.1569004058837900,35.0410003662109400,207.5341033935547000,163.0888977050781200,20.1459102630615230,31.3229598999023440,78,114,86,80,63,15168,2148214125,2148749339,2150429513,2147882816,2147759707,2147899465,2149300726,2147297682,1282,1,15,9109
1383172984,5808,147.6600036621093800,20.3269996643066400,35.0541000366210940,207.7241973876953000,156.7588043212890600,20.3396091461181640,31.2271900177001950,81,111,85,82,62,15163,2148332242,2148954880,2150769590,2147885403,2147801901,2148011099,2149445650,2147307181,815,2,15,43129
1383173087,5808,144.2799987792968800,20.6047992706298830,35.0495986938476560,206.3977050781250000,149.7100067138672000,20.5553894042968750,31.2055091857910160,91,118,88,83,63,15147,2148453833,2149168539,2151107776,2147889920,2147842395,2148100992,2149583588,2147320886,266,2,15,51058
1383173295,5809,140.0599975585937500,20.8001003265380860,35.0652008056640600,205.9418945312500000,142.0626068115234400,20.7896194458007800,31.1283302307128900,94,120,87,82,62,15139,2148720466,2149597074,2151758244,2147896502,2147926848,2148277376,2149817033,2147341339,3071,2,15,47557
1383173410,5807,135.6100006103515600,20.9857006072998050,35.0894012451171900,206.5581970214843800,136.0968933105468800,20.9724197387695300,31.0145797729492200,96,120,86,82,63,15140,2149107913,2150176594,2152621211,2147904457,2148060489,2148535570,2150136365,2147370971,3563,2,15,41505
1383173501,5806,131.8099975585937500,21.3628005981445300,35.1649017333984400,212.2373046875000000,126.1908035278320300,21.2761707305908200,30.5754508972167970,97,116,86,81,61,15139,2148403035,2148605741,2149737737,2147885430,2147815954,2147778596,2148933385,2147277705,128,2,15,52119
1383173600,5809,127.3899993896484400,21.6030006408691400,35.2088012695312500,220.2868957519531200,115.9327011108398400,21.5909805297851560,30.0225791931152340,101,117,89,81,62,15132,2149785188,2150998912,2153674596,2147918646,2148330733,2148920411,2150543396,2147407222,3098,2,15,1870
1383173679,5810,123.1100006103515600,21.8327007293701170,35.2312011718750000,223.7772064208984400,107.6934967041015600,21.8440494537353500,29.7405490875244140,105,119,87,82,60,15124,2150704557,2152263561,2155399936,2147944777,2148698889,2149548516,2151279680,2147469156,2363,1,15,17841
1383173746,5805,119.6500015258789000,22.3465003967285160,35.2863006591796900,226.4680938720703000,92.0768203735351600,22.3243293762207030,29.4066791534423830,115,115,89,81,60,15121,2151577792,2153412297,2156927396,2147969380,2149040429,2150076004,2151869714,2147527588,2351,2,15,40572
1383173837,5810,115.9499969482421900,22.5083999633789060,35.3097000122070300,232.8881988525390600,86.8168029785156200,22.4862899780273440,29.0318603515625000,122,115,87,82,61,15113,2152599625,2154645193,2158355547,2147992438,2149436068,2150609188,2152423579,2147578870,2316,2,15,15581
1383173943,5812,111.8199996948242200,22.6734008789062500,35.2965011596679700,235.6739959716797000,80.8127670288086000,22.6712703704834000,28.8256397247314450,128,115,86,81,60,15103,2154185389,2156584347,2160692397,2148035318,2150047405,2151424722,2153283355,2147664036,2028,2,15,37467
1383174058,5804,108.0000000000000000,22.8675994873046880,35.2887001037597660,235.4019012451172000,75.1109619140625000,22.8470802307128900,28.7663307189941400,134,117,89,82,62,15093,2155863241,2158484324,2162819008,2148081371,2150682889,2152247360,2154133293,2147742326,1049,2,15,49683
1383174185,5808,104.1399993896484400,23.0398006439209000,35.3072013854980500,237.7272949218750000,69.2040023803711000,23.0293407440185550,28.5848808288574220,128,116,90,84,59,15099,2158177097,2161127881,2165799259,2148150747,2151578797,2153427282,2155361746,2147864100,732,1,15,41272
1383174308,5809,99.6800003051757800,23.1502990722656250,35.3207015991210940,240.3623962402343800,64.9116210937500000,23.1618804931640620,28.4112701416015620,112,117,87,82,59,15092,2157226953,2158866102,2161716644,2148103542,2151372169,2152619446,2154067821,2147761453,3215,2,16,28781
1383174363,5809,97.3000030517578100,23.2737998962402340,35.3266983032226560,241.5142059326172000,61.0597381591796900,23.2808799743652340,28.3112506866455080,110,117,88,83,59,15093,2164263323,2167532489,2172412854,2148347318,2154118016,2156412105,2158167433,2148148699,177,2,16,16776
1383174418,5808,95.1800003051757800,23.5000991821289060,35.3279991149902340,242.2935028076172000,55.1893692016601560,23.4623699188232420,28.2033500671386720,107,117,88,83,58,15096,2166426112,2169837220,2174630089,2148407387,2155043291,2157434432,2159016146,2148240475,981,1,15,14118
1383174473,5807,93.6399993896484400,23.5046005249023440,35.3315010070800800,243.9143981933593800,54.0845298767089840,23.4965400695800780,28.1176490783691400,104,119,90,84,57,15094,2168135753,2171448758,2176020233,2148463533,2155942445,2158406802,2159869101,2148325540,945,1,15,10876
1383174528,5807,92.2399978637695300,23.5293006896972660,35.3314018249511700,244.7030029296875000,53.0903282165527340,23.5272998809814450,28.0705699920654300,101,118,88,84,59,15085,2168657060,2171209481,2174836004,2148452196,2156278272,2158546514,2159799908,2148324562,495,1,15,18050
1383174615,5808,89.4199981689453100,23.7963008880615230,35.3329010009765600,245.4597930908203000,44.0658493041992200,23.8066806793212900,27.9254894256591800,95,122,88,83,58,15079,2175106459,2177737590,2181384795,2148670454,2159027154,2161637321,2162648713,2148612114,2937,2,16,45794
1383174670,5810,87.2200012207031200,24.0832004547119140,35.3339004516601560,245.7864990234375000,35.4759712219238300,24.0729808807373050,27.8051795959472660,91,122,90,83,59,15079,2179579638,2181932068,2185109403,2148833435,2161184612,2163845083,2164420086,2148805110,3106,0,16,27900
1383174725,5809,85.3300018310546900,24.3476009368896500,35.3433990478515600,247.0307006835937500,27.0248603820800780,24.3353290557861330,27.6471500396728500,87,121,88,84,58,15080,2183485878,2185715520,2188565906,2148971931,2163250797,2166052662,2166295634,2148997750,2746,2,16,20875
1383174780,5808,83.7699966430664000,24.5949993133544920,35.3596992492675800,247.4214935302734400,21.6981506347656250,24.5008792877197270,27.5649604797363280,88,124,92,84,58,15078,2186875510,2189301686,2192037833,2149129828,2165016886,2167875894,2167766518,2149166171,2283,1,16,51617
1383174847,5805,82.2600021362304700,24.7222003936767580,35.3657989501953100,247.7245941162109400,15.9524803161621100,24.6796207427978500,27.4814395904541000,87,122,90,84,56,15073,2185460370,2186782774,2188711981,2149097280,2163886345,2166065426,2165610368,2148977417,2960,1,16,14673
1383174946,5805,80.0699996948242200,25.2247009277343750,35.3888015747070300,247.3229064941406200,-0.5594999194145203,25.1943092346191400,27.2970409393310550,80,125,91,85,58,15072,2193130989,2194843602,2197123035,2149488265,2168467190,2171324324,2170539154,2149458496,2861,0,16,1947
1383175049,5811,78.8099975585937500,25.2499008178710940,35.3930015563964840,247.4817047119140600,-2.2039709091186523,25.2456493377685550,27.2702102661132800,80,126,89,83,59,15076,2195084626,2196569462,2198666176,2149603739,2169905206,2172787062,2171719606,2149585389,2917,1,16,9426
1383175243,5810,75.4899978637695300,25.9808006286621100,35.4025001525878900,245.4145050048828000,-22.7519493103027340,25.8886203765869140,27.1090202331542970,77,125,91,84,56,15066,2207546834,2209424338,2211702409,2150353764,2176989394,2180231606,2177987830,2150256274,2913,2,16,36367
1383175298,5807,74.4199981689453100,26.0384998321533200,35.4165992736816400,245.3739013671875000,-26.7134895324707030,26.0128898620605470,27.0627403259277340,77,125,91,84,57,15061,2210093650,2211817792,2214179410,2150583067,2179235931,2182694162,2180142034,2150484836,3110,1,16,53717
1383175612,5811,72.1900024414062500,26.5093994140625000,35.4143981933593750,244.2722930908203000,-38.5294685363769500,26.3841705322265620,26.9669990539550780,73,128,93,86,57,15048,2166727753,2164123940,2162323309,2148379145,2158270546,2157282934,2155685558,2147987456,3390,1,16,20028
1383175691,5808,70.3000030517578100,26.7194995880126950,35.4221992492675800,243.0077056884765600,-48.0937805175781250,26.6853904724121100,26.9055900573730470,73,124,90,85,54,15048,2164966491,2162153700,2160159305,2148294336,2157554925,2156281325,2154642916,2147888685,2403,1,16,51938
1383175794,5808,68.5500030517578100,26.7369003295898440,35.4220008850097660,242.6486968994140600,-49.1711807250976560,26.7193698883056640,26.9082202911376950,76,126,90,85,56,15051,2163976649,2161085604,2159072566,2148276662,2157006994,2155652461,2154075730,2147839469,2634,1,16,38739
1383175881,5806,65.9000015258789000,26.8225994110107420,35.4244995117187500,242.0128021240234400,-52.2299804687500000,26.8158702850341800,26.8987102508544920,71,127,93,86,55,15050,2164942902,2161824850,2159615643,2148344310,2157930395,2156356699,2154486363,2147892571,2240,1,17,39222
1383175936,5805,63.5000000000000000,27.0606002807617200,35.4114990234375000,240.9983978271484400,-56.9867706298828100,26.9660606384277340,26.8852291107177730,69,125,91,87,57,15045,2165848612,2162418532,2159954240,2148395200,2158857106,2156998573,2154798866,2147930203,1589,1,16,34562
1383175991,5809,61.9000015258789060,27.4698009490966800,35.4006004333496100,237.4221038818359400,-70.7872009277343800,27.4027805328369140,26.8748493194580080,72,127,94,84,56,15043,2166512786,2162840265,2160162011,2148426587,2159601837,2157493485,2155035931,2147957942,1094,0,16,47544
1383176281,5810,60.2500000000000000,27.5489997863769530,35.4211006164550800,231.7209930419922000,-75.3774795532226600,27.5483608245849600,27.0742092132568360,70,126,91,84,55,15043,2245676818,2244162102,2242773440,2154461595,2214657106,2214136630,2201410532,2153028077,462,1,16,61646
1383176360,5809,58.0999984741210940,27.6051006317138670,35.4188995361328100,230.5520019531250000,-76.9901885986328100,27.5995502471923830,27.1077308654785160,69,124,88,85,58,15047,2254944594,2253370788,2251370084,2155507008,2224126720,2222295506,2206769179,2153717860,763,1,16,45750
1383176427,5809,56.2900009155273440,27.6373004913330080,35.4126014709472660,229.5556030273437500,-78.1392822265625000,27.6360301971435550,27.1392593383789060,71,122,90,86,54,15051,2258264036,2256616146,2253427693,2156149284,2230456320,2227101165,2209242889,2153997366,1272,1,17,12072
1383176514,5809,53.5800018310546900,27.7196006774902340,35.3829002380371100,227.4178924560547000,-80.6482315063476600,27.7157306671142580,27.2071208953857420,65,120,88,83,54,15056,2272349860,2268781942,2264036470,2158042660,2247911058,2241580361,2218419666,2155166125,1015,1,16,17130
1383176569,5806,51.4199981689453100,27.8320007324218750,35.3266983032226560,225.4808959960937500,-84.0829162597656200,27.8249092102050780,27.2553005218505860,63,117,90,82,55,15060,2284545545,2281247204,2276379501,2160183945,2263932269,2255743414,2227938660,2156329270,1062,1,16,3676
1383176624,5805,49.8300018310546900,27.8535003662109380,35.3050003051757800,224.0773010253906200,-85.0538101196289000,27.8557891845703120,27.3092308044433600,62,117,90,81,52,15047,2288281508,2283965531,2279370258,2161220909,2270321526,2260629485,2231047524,2156817590,2697,0,16,58195
1383176691,5803,48.2299995422363300,27.8638992309570300,35.2888984680175800,223.5191040039062500,-85.6395568847656200,27.8744297027587900,27.3283100128173830,61,118,87,82,57,15049,2294349376,2289812123,2284926674,2162742610,2279938304,2268645357,2236126848,2157628388,3408,0,17,49211
1383176770,5807,46.3899993896484400,27.8812007904052730,35.2655982971191400,222.9886932373047000,-86.1135101318359400,27.8895092010498050,27.3475704193115230,61,120,88,84,59,15058,2301983488,2297965348,2293394358,2165434934,2289970852,2276328082,2240567744,2158334006,3312,0,17,52376
1383176857,5808,43.6199989318847660,27.8822002410888670,35.2282981872558600,222.5074005126953000,-86.1281585693359400,27.8899707794189450,27.3702201843261720,58,117,88,82,56,15059,2308876882,2304341376,2298957476,2168486390,2307400402,2290427136,2249168841,2159713846,2963,1,16,212
1383176912,5807,41.0800018310546900,27.8761997222900400,35.2205009460449200,222.1927032470703000,-85.8346862792968800,27.8806304931640620,27.3887500762939450,58,117,88,82,53,15070,2320033353,2316698505,2312015707,2173622857,2324689590,2304473417,2257482441,2160960667,2629,0,16,60169
1383176967,5805,38.3800010681152340,27.8575992584228500,35.2083015441894500,222.0569000244140600,-85.3056793212890600,27.8638000488281250,27.4016399383544920,56,115,87,83,54,15068,2330316397,2326951835,2321708352,2177637193,2347742427,2324238628,2270586907,2163821129,2375,1,17,24937
1383177022,5809,35.6699981689453100,27.8409004211425780,35.1997985839843750,222.0621032714843800,-84.6807785034179700,27.8439292907714840,27.4090194702148440,55,116,88,81,55,15074,2347037366,2345258230,2340972681,2186000886,2369620544,2342081993,2281246208,2166486052,2065,1,16,61881
1383177077,5805,33.0299987792968750,27.8379993438720700,35.1963996887207000,222.0119018554687500,-84.5232162475586000,27.8389091491699220,27.4134006500244140,56,116,90,83,50,15068,2366794816,2366579748,2364525348,2195445997,2397848054,2366593225,2297308918,2169533942,1901,0,16,48588